Wind_Speed
40 40 40 41 41 41 42 43 44 45 45 46 47 48 49 50 51 50 50 49 50 51 54 58 62 66 70 74 77 79 80 79 78 76 77 77 75 73 74 73 74 76 79 82 85 87 87 87 87 87 86 86 85 85 84 83 82 80 78 76 74 75 76 76 76 75 73 69 67 65 63 60 59 59 58 55 54 53 53 52 51 49 50 50 50 50 50 50
39 40 40 40 40 41 41 42 43 44 45 46 46 47 48 49 50 51 51 51 50 50 51 54 57 61 65 69 72 76 79 80 80 79 79 78 76 76 76 73 71 72 75 78 80 83 86 87 87 87 86 86 85 85 84 83 82 80 79 77 77 78 78 78 77 76 74 70 68 66 64 62 60 60 58 56 54 53 53 51 49 48 48 48 48 48 48 49
37 38 39 40 40 41 41 42 43 43 44 45 46 47 48 48 49 50 52 52 52 51 51 52 53 56 60 64 68 71 75 78 80 81 81 79 78 77 76 74 71 71 73 75 77 79 82 84 86 86 86 86 85 85 84 83 82 81 79 78 79 81 81 80 79 78 75 71 69 67 65 63 62 61 59 57 55 54 53 51 49 48 48 47 47 47 48 49
36 37 37 38 39 40 41 42 43 43 44 45 45 47 48 48 49 49 51 52 52 52 52 52 52 54 56 59 63 66 70 73 76 80 82 81 80 79 77 76 73 72 73 74 74 75 77 79 81 83 85 86 86 85 84 83 82 81 80 80 82 82 82 82 80 79 76 73 71 68 66 65 63 62 61 59 57 55 54 53 51 49 48 47 48 49 49 49
37 37 38 38 39 40 41 42 43 44 45 45 46 46 47 48 49 49 50 51 52 53 53 53 53 53 54 56 58 61 66 69 72 77 81 82 82 81 78 77 75 74 74 74 72 73 74 75 76 79 81 84 85 84 84 83 82 81 80 81 82 83 83 83 80 79 77 74 72 70 68 66 65 63 62 60 59 57 56 54 51 49 48 49 50 50 50 50
39 39 40 41 41 42 42 43 43 44 45 46 47 47 48 48 49 50 50 51 52 53 54 54 54 54 54 54 55 57 61 64 68 73 77 81 83 83 81 79 77 75 75 75 72 71 72 72 73 75 77 80 81 82 83 83 82 80 80 81 82 83 84 82 80 79 77 75 73 71 69 68 66 64 63 62 61 59 57 55 53 51 51 51 52 52 52 51
41 42 43 44 45 45 45 45 45 45 46 46 47 48 49 49 49 50 51 51 51 52 54 55 55 54 54 54 54 54 56 61 66 70 74 77 81 83 83 81 78 76 76 75 73 71 71 71 72 73 74 76 77 79 81 81 80 79 80 81 82 84 84 81 79 78 77 75 73 71 71 69 68 66 65 64 63 61 58 57 55 54 53 54 55 54 53 52
44 44 46 47 48 48 48 48 47 47 47 47 48 48 49 50 50 50 51 51 51 52 53 55 55 55 55 54 54 52 54 60 64 66 70 73 77 81 83 82 80 77 76 76 75 73 72 71 71 72 73 73 74 75 77 78 78 78 79 81 82 84 82 79 78 77 75 74 73 72 71 70 69 68 67 66 64 62 60 59 57 56 56 56 57 56 55 54
47 47 48 49 51 51 51 50 50 50 49 49 50 50 50 50 51 51 51 52 52 52 52 54 55 56 55 54 53 52 56 61 61 61 66 70 73 77 80 82 82 79 78 78 76 74 73 72 71 71 72 72 72 73 73 72 73 74 77 79 80 82 80 77 76 75 74 73 72 72 71 71 70 69 68 67 65 64 62 61 60 59 59 59 58 57 56 55
50 50 50 51 53 54 54 53 52 52 52 52 52 52 52 51 51 52 52 52 52 52 53 53 54 55 55 55 53 53 59 61 58 59 62 66 70 73 77 80 82 81 80 80 78 75 75 74 73 72 71 71 70 70 70 68 69 71 73 75 77 79 77 75 74 74 73 72 71 71 71 70 70 69 69 68 67 65 64 63 62 62 62 62 60 59 57 56
53 53 53 54 55 57 57 56 55 54 53 54 54 54 54 53 53 52 52 53 53 53 53 54 54 54 55 55 52 56 62 60 58 58 58 62 67 70 73 77 80 81 81 81 79 77 77 76 75 72 70 69 69 69 68 67 67 68 69 71 73 75 73 72 72 72 71 70 70 70 69 69 69 68 68 68 68 67 66 65 64 64 64 64 62 60 59 57
56 56 56 57 59 60 60 59 57 55 55 55 56 57 56 56 55 54 53 53 53 54 54 55 54 53 54 52 54 62 62 58 59 59 57 59 63 67 70 73 77 80 81 81 81 80 79 77 75 73 71 69 68 67 66 65 65 66 68 68 70 71 69 68 69 68 68 68 68 68 67 67 67 67 68 68 68 68 67 67 67 67 67 66 64 62 60 58
58 58 58 60 62 63 63 61 60 58 57 56 57 59 59 58 57 56 55 55 54 54 55 55 54 54 53 50 59 65 60 59 61 61 58 57 60 64 68 71 74 78 81 82 82 81 80 77 75 74 72 70 69 66 64 63 64 65 67 67 68 67 65 64 65 65 65 66 66 65 65 65 65 65 66 67 67 68 68 69 69 69 68 67 65 63 61 60
61 61 61 63 65 66 65 64 63 61 59 58 58 60 61 61 59 58 58 58 57 56 55 55 54 55 51 52 65 65 59 61 63 62 59 55 57 61 65 69 71 74 79 81 82 82 80 78 76 74 72 71 70 67 63 62 62 64 65 66 66 64 63 62 62 62 63 64 63 62 62 63 63 63 64 65 66 67 69 70 70 70 69 67 66 64 62 61
63 63 65 67 68 68 68 66 65 64 62 60 61 62 62 62 61 61 61 61 61 58 57 56 56 56 52 57 68 64 61 64 63 62 59 55 57 59 62 66 69 71 76 80 81 81 80 78 77 75 73 72 71 68 64 61 61 61 62 63 63 62 62 61 61 61 61 62 61 59 60 60 60 60 61 63 64 66 67 69 69 69 68 67 66 65 63 62
66 67 69 71 71 71 70 69 68 66 65 63 63 64 64 62 62 64 65 64 63 62 60 58 58 57 54 61 69 65 63 64 63 62 59 58 58 57 60 64 67 69 72 77 80 80 80 78 77 76 74 72 71 68 65 62 60 59 59 60 61 61 62 61 60 61 61 60 59 57 58 58 58 58 59 60 61 63 64 66 67 67 67 66 66 65 64 62
70 72 74 75 74 73 72 71 70 68 67 66 66 67 66 63 63 65 67 67 66 64 63 61 61 60 58 64 69 66 64 64 63 63 61 60 59 58 59 62 65 68 69 73 77 79 79 78 77 76 74 73 71 67 64 61 59 57 57 58 59 60 61 61 61 61 61 59 58 57 57 57 57 57 57 58 59 60 61 63 64 64 64 64 64 64 63 62
75 77 78 78 77 76 75 74 73 71 70 68 69 70 68 65 64 66 68 69 68 67 65 65 64 63 63 67 68 67 66 65 64 63 62 61 59 58 59 61 64 66 67 70 74 77 78 78 77 76 74 72 70 66 61 58 59 58 57 58 58 60 61 61 61 61 61 60 58 57 57 57 57 57 57 56 57 58 59 60 61 61 60 60 60 60 61 61
80 81 81 80 80 79 78 77 75 74 73 71 71 73 70 66 66 67 68 69 70 70 68 68 67 66 66 68 69 68 68 66 64 63 63 62 60 59 59 60 62 64 66 66 69 75 77 77 77 75 72 69 67 65 62 62 63 63 62 61 61 61 61 61 60 60 61 60 58 57 58 58 58 58 57 57 57 57 57 57 57 56 55 54 55 56 57 57
84 84 84 83 83 82 81 80 79 77 75 74 74 74 72 68 68 69 69 70 71 72 72 70 70 69 69 70 70 69 68 66 64 62 63 62 61 60 60 60 60 62 63 64 66 71 76 77 75 72 70 69 69 68 66 67 67 66 65 63 62 61 61 60 59 58 60 60 59 59 59 60 59 59 58 57 57 56 55 54 53 52 50 50 50 51 52 51
86 87 86 86 85 84 83 82 81 79 77 76 75 75 73 69 69 70 70 70 73 75 74 72 71 70 70 71 71 70 68 66 64 63 63 62 61 60 60 60 59 59 61 63 65 68 72 74 72 71 71 72 72 71 70 69 68 67 66 65 64 62 61 60 57 56 57 58 58 59 60 61 60 59 58 57 56 55 53 52 51 49 47 46 46 46 46 45
88 89 88 88 87 86 84 83 81 80 77 76 75 75 72 69 69 71 70 70 74 76 74 73 70 70 73 73 71 69 68 67 66 64 63 62 62 61 60 59 59 59 60 62 63 64 67 69 71 72 73 73 73 72 71 70 68 68 67 66 65 64 63 61 58 55 55 55 56 57 59 60 60 59 57 56 55 54 53 52 50 47 44 43 43 43 42 42
90 90 89 88 87 85 83 81 79 77 75 73 73 72 70 68 69 70 70 71 75 76 73 73 70 71 75 75 71 69 68 68 68 65 63 62 62 61 60 59 59 60 60 60 61 62 63 66 71 74 74 73 73 72 71 69 68 67 67 66 65 65 64 63 60 56 54 54 54 55 57 58 58 57 55 55 55 54 53 51 48 46 44 44 43 43 42 40
90 90 88 86 83 81 79 78 76 74 71 69 69 68 66 66 67 69 70 70 74 76 72 71 70 71 76 75 70 68 69 69 68 65 63 62 62 62 60 60 60 60 59 60 61 62 62 65 71 75 74 73 72 72 71 69 68 67 66 66 65 66 66 65 62 58 55 55 54 54 55 55 55 54 53 54 54 53 52 50 48 46 46 47 45 43 42 40
89 87 84 81 78 77 75 73 72 69 67 65 64 63 63 64 65 67 69 67 72 75 69 68 70 71 75 74 69 69 69 69 68 66 65 64 63 63 62 61 60 60 60 61 61 62 63 65 70 74 74 74 72 71 70 69 68 67 66 65 66 68 68 67 64 60 57 55 53 53 53 51 50 50 51 52 52 52 51 50 48 48 49 49 46 45 44 42
84 81 79 76 73 72 71 68 67 64 62 60 58 59 59 60 62 64 65 64 68 72 67 65 69 71 73 73 69 69 69 70 70 68 66 65 65 64 63 61 60 60 61 62 62 62 63 64 67 71 73 74 73 71 70 69 69 67 66 66 67 68 69 68 66 62 59 56 54 52 50 49 48 48 49 50 50 50 50 49 48 49 51 50 48 47 45 43
78 76 74 71 68 67 66 64 62 60 58 55 54 54 55 57 59 60 60 61 65 68 65 64 67 70 71 71 68 68 69 72 71 67 66 66 65 64 63 61 60 60 62 63 62 61 61 63 66 69 72 73 72 70 70 69 68 67 66 67 68 68 69 68 67 64 61 58 56 53 50 48 47 46 47 47 47 48 48 48 48 50 51 50 49 48 46 43
72 70 68 66 63 62 62 61 59 56 53 50 49 50 52 54 56 56 56 58 61 64 63 62 64 68 69 68 67 68 70 73 70 67 68 68 66 64 62 60 60 61 62 63 61 61 62 62 64 66 70 72 71 70 70 70 68 67 68 68 68 69 69 68 67 65 63 61 57 53 50 48 46 45 45 45 45 46 46 47 48 49 50 49 48 47 45 40
65 64 63 62 61 59 59 58 56 53 50 47 46 48 50 52 52 51 52 55 58 59 59 59 61 65 67 65 65 67 69 71 69 67 68 67 64 62 61 60 61 62 63 63 62 63 63 62 64 67 69 71 72 72 72 71 69 69 70 70 70 70 69 68 67 65 63 60 56 54 52 49 47 45 44 42 43 44 45 47 48 48 48 47 46 45 42 38
59 59 60 60 59 57 57 56 53 50 48 45 45 47 49 49 48 48 49 52 55 55 56 56 59 63 64 63 63 65 67 69 68 66 67 66 63 61 60 61 61 62 62 63 62 64 64 64 66 67 69 72 74 75 74 73 71 70 71 72 71 70 70 68 66 65 61 56 54 55 53 50 48 46 43 41 41 43 45 46 46 46 46 45 44 42 40 37
56 57 58 58 57 55 54 53 49 47 45 43 44 46 47 47 45 44 46 50 52 52 53 54 56 59 60 60 61 63 65 66 66 65 66 64 61 60 59 59 59 60 61 61 60 62 63 63 65 66 67 71 75 76 75 74 72 71 72 72 71 70 69 68 65 62 56 52 53 56 54 52 49 47 44 42 41 43 43 44 45 45 44 43 42 40 38 34
53 54 55 55 53 51 50 48 45 43 41 41 43 45 45 44 41 42 46 49 49 49 50 52 54 57 58 59 60 62 64 65 64 64 64 62 60 58 58 57 58 58 57 57 58 60 62 62 63 65 66 69 73 75 75 74 73 71 72 71 69 68 68 65 61 57 51 49 53 55 54 52 50 49 47 44 42 43 42 43 44 43 42 40 39 37 34 32
49 49 50 49 48 45 43 41 39 38 35 37 41 43 43 41 40 43 47 47 46 46 48 50 52 55 56 58 59 61 63 63 63 63 62 60 58 57 57 57 58 57 56 58 59 59 60 61 62 63 65 66 70 74 74 72 71 70 70 69 67 65 63 60 56 51 48 49 53 54 53 51 50 51 49 45 44 43 43 43 42 41 40 38 37 34 32 31
44 44 44 43 42 39 37 35 33 31 31 34 39 41 40 39 41 44 45 45 44 44 47 49 51 53 54 56 57 59 61 61 61 61 60 57 56 55 55 55 56 57 57 59 60 60 60 60 60 61 62 63 67 72 74 74 73 71 71 70 67 64 61 57 53 50 49 51 53 53 50 48 50 51 50 47 45 45 44 44 41 39 38 36 35 33 31 32
40 39 38 38 37 34 32 31 28 27 28 32 37 38 38 40 44 45 44 44 44 44 47 49 50 52 53 54 56 57 58 58 57 57 56 54 53 53 53 54 55 55 57 58 59 59 60 61 60 61 62 63 65 71 75 77 76 75 75 73 68 65 62 59 56 53 53 54 53 51 48 46 49 52 51 49 47 46 46 44 41 39 38 36 35 34 34 34
37 35 34 33 32 29 28 27 26 25 26 29 33 36 39 42 45 44 44 45 44 44 47 48 49 50 51 52 54 55 55 54 53 52 52 51 52 52 53 53 54 55 56 57 58 58 60 61 62 63 63 63 65 70 74 77 77 76 75 71 67 65 63 59 56 55 54 52 50 47 45 45 50 52 51 49 48 46 46 44 42 40 38 37 35 35 35 35
34 32 30 29 28 25 24 23 23 24 25 27 31 36 40 43 44 44 46 45 43 44 46 47 47 48 49 50 51 51 51 50 50 49 49 49 50 50 51 52 53 55 56 58 58 59 60 61 63 64 64 64 66 70 74 77 78 76 73 69 68 66 63 59 56 53 51 48 46 44 44 45 49 50 49 49 48 46 45 45 43 40 39 38 37 37 37 35
32 30 27 25 24 22 21 21 21 22 24 27 31 36 40 43 44 45 46 45 43 44 45 45 45 46 47 48 48 48 48 47 47 46 47 47 48 49 50 51 52 54 56 57 58 60 61 62 63 64 65 66 67 70 74 76 77 76 74 73 71 66 60 57 54 50 48 46 44 44 43 44 46 47 48 48 48 47 46 46 45 42 41 41 40 39 38 36
30 28 26 23 20 19 19 18 18 20 23 26 30 35 39 41 43 44 44 43 43 43 43 43 44 45 46 46 46 46 45 44 45 45 45 46 46 47 49 51 52 53 55 56 57 59 60 62 63 64 65 67 68 69 70 72 74 76 75 74 71 65 60 57 54 50 48 47 45 45 43 43 44 46 48 48 48 48 47 47 46 44 43 43 42 41 40 37
28 26 23 20 17 16 15 15 16 18 22 25 29 34 38 41 42 43 43 42 42 41 41 42 43 44 44 45 45 44 43 43 43 43 44 45 45 47 48 50 52 53 55 57 57 58 60 61 63 64 66 65 64 63 66 69 72 74 72 70 68 64 59 56 53 51 50 48 46 45 43 43 45 47 48 48 48 48 48 47 46 45 44 44 43 42 40 38
26 23 20 17 14 12 11 12 14 17 20 23 27 31 35 38 40 41 42 42 42 41 41 42 42 43 43 42 42 42 42 42 42 42 43 44 45 46 48 49 51 52 54 55 56 58 59 60 62 64 63 61 59 62 67 70 71 73 72 70 68 64 59 56 52 48 47 47 46 44 43 44 46 47 48 48 47 48 48 47 46 45 45 44 44 42 41 39
22 18 16 13 10 8 8 9 12 15 18 21 25 29 32 35 38 40 41 42 41 41 41 41 41 41 41 40 40 41 41 41 42 42 43 45 46 48 49 51 52 52 54 55 56 58 60 61 62 62 61 61 62 66 70 72 73 75 75 74 72 67 61 57 52 49 48 47 45 43 43 45 46 46 47 47 47 47 47 47 46 46 45 45 44 42 41 39
17 13 12 9 6 5 6 8 12 15 18 21 24 27 31 34 37 39 40 41 40 40 41 40 40 39 39 39 39 40 40 40 41 43 45 47 48 49 50 50 51 52 53 54 55 57 59 61 61 61 62 64 66 68 71 73 74 75 76 75 72 67 62 59 56 55 53 49 46 44 44 46 46 46 47 47 46 46 46 47 46 45 45 45 44 43 41 40
13 10 9 7 4 4 7 11 13 16 18 21 23 27 31 36 38 39 40 39 39 40 41 40 39 39 38 39 39 38 38 39 40 42 43 45 45 46 46 47 47 49 50 52 53 55 57 59 60 61 63 64 66 67 70 72 72 71 72 72 69 65 63 61 59 57 53 49 47 46 45 47 47 47 47 47 46 45 45 45 45 44 44 43 42 41 40 40
12 11 10 7 3 4 8 11 13 15 18 21 23 28 34 38 39 40 39 39 39 40 40 39 39 38 38 38 38 37 37 38 39 40 40 40 40 41 42 42 44 46 48 50 52 54 56 58 59 60 61 62 62 62 63 65 65 66 68 69 68 66 63 61 58 55 50 48 46 45 45 46 47 46 46 46 45 44 43 43 42 42 42 41 40 39 38 39
14 12 11 7 1 4 7 11 13 14 17 21 25 31 35 38 39 38 38 38 39 39 39 38 37 36 36 36 36 36 37 37 38 38 38 38 38 39 40 41 43 45 48 49 50 52 55 56 58 59 61 61 61 61 63 64 64 65 67 68 68 66 64 61 58 53 50 48 47 45 45 47 46 46 45 45 44 43 42 41 41 41 40 40 39 38 38 39
16 13 10 5 1 5 8 11 12 14 17 22 27 32 35 37 38 37 37 38 38 38 37 36 35 35 35 35 35 36 36 36 36 37 37 37 38 39 40 42 43 45 47 48 49 51 53 54 55 57 59 60 61 63 66 67 66 66 67 69 69 67 65 61 56 52 51 49 46 45 47 48 47 47 46 45 44 43 42 41 41 41 41 40 40 39 39 40
16 13 8 2 5 9 11 13 14 16 20 24 28 32 35 37 37 37 36 36 36 36 35 35 34 35 35 34 35 35 35 35 35 35 35 36 38 39 40 41 42 43 44 45 47 49 52 53 53 55 57 58 59 62 65 66 65 66 68 69 69 68 65 61 57 54 53 50 47 47 49 49 49 48 47 46 45 44 43 42 42 42 42 41 41 41 40 41
15 11 5 3 9 12 16 18 17 19 23 26 29 34 37 38 37 36 35 34 34 34 34 34 34 34 34 33 33 33 33 33 33 34 35 36 36 37 38 39 39 41 42 44 46 48 50 51 51 52 53 55 58 61 64 64 64 65 67 69 70 68 66 62 59 57 54 50 49 48 49 50 51 50 49 47 46 45 44 43 42 42 41 41 41 41 40 41
13 7 4 9 13 16 19 21 21 22 26 29 32 35 36 36 35 33 33 32 32 32 32 33 33 33 33 32 32 32 32 32 33 33 34 34 34 34 35 36 37 39 41 43 45 47 49 49 49 49 50 52 55 59 62 62 62 64 66 68 69 69 67 64 61 57 54 51 49 48 48 49 50 49 49 47 46 45 45 45 44 43 43 42 42 42 41 41
9 4 9 14 16 18 21 23 23 24 27 30 31 32 32 31 31 30 30 30 31 31 32 32 33 33 33 33 32 32 32 32 32 32 32 31 32 33 34 35 37 39 40 42 44 46 47 47 47 48 48 50 54 57 59 60 60 62 65 67 68 68 66 63 60 57 54 51 49 47 47 48 50 49 48 47 46 46 46 46 45 44 44 43 43 43 42 42
6 7 13 18 19 21 24 26 26 27 30 31 31 31 31 30 29 29 29 30 31 31 31 31 31 31 31 30 30 30 30 30 30 30 29 30 31 33 34 35 37 39 40 42 44 46 46 45 46 47 49 51 54 56 58 58 60 62 64 66 67 66 65 62 60 57 54 52 50 47 47 49 50 50 49 48 48 47 47 46 46 45 44 43 42 42 42 42
Wind_Direction
283 282 280 279 277 276 274 272 271 269 267 266 264 263 262 260 259 259 259 259 259 258 257 254 252 250 248 247 246 244 243 243 243 243 243 243 244 245 246 244 243 243 243 242 242 242 242 242 242 242 242 242 242 242 243 243 244 244 245 245 245 245 245 246 247 249 250 251 252 253 254 254 255 257 258 259 259 260 261 262 263 264 264 264 265 265 266 267
284 283 281 279 277 275 274 272 271 270 268 267 265 264 262 261 260 258 258 257 258 258 257 256 255 252 250 248 247 246 244 243 242 242 243 243 243 243 244 244 244 244 243 243 242 242 242 242 242 242 242 242 242 242 242 243 243 243 244 244 244 245 245 246 247 248 249 250 251 252 253 253 254 256 257 257 258 259 260 261 262 262 262 262 263 265 265 265
288 286 283 281 278 276 274 272 271 270 269 268 266 265 263 262 260 259 257 256 256 256 256 256 256 254 252 250 248 247 246 244 243 242 242 242 242 242 243 243 243 243 244 243 242 242 242 241 241 241 242 242 242 242 242 243 243 243 243 243 244 244 245 246 246 247 248 249 250 250 251 252 253 254 255 256 257 257 258 259 259 259 260 261 261 262 262 262
294 291 289 286 283 280 277 274 272 270 269 268 267 266 264 262 260 259 258 257 255 255 255 255 255 255 254 252 250 248 247 245 244 243 242 242 242 242 242 243 242 242 243 243 242 242 242 242 242 242 242 242 242 242 242 243 243 242 242 243 243 244 245 246 247 248 248 248 249 249 250 251 251 252 254 254 255 255 256 257 257 258 259 259 259 259 260 261
300 298 295 293 290 286 283 279 275 272 269 268 267 266 265 263 261 260 258 257 256 255 254 254 254 254 254 253 252 250 249 247 245 244 242 242 242 241 241 242 241 241 242 243 242 242 242 242 242 242 242 242 242 242 242 242 242 242 242 243 244 244 245 246 247 248 248 248 248 248 249 250 250 251 252 253 253 253 254 256 256 256 256 256 256 257 258 259
306 304 303 300 297 293 289 285 281 277 273 270 268 266 265 263 262 260 259 257 256 255 254 253 253 253 253 253 252 252 251 249 247 245 243 241 241 241 240 240 241 240 241 242 242 242 242 242 242 242 242 242 242 242 242 242 242 242 243 243 244 244 245 245 246 247 248 248 248 248 249 249 249 250 250 251 252 252 253 254 254 253 253 254 255 255 256 258
306 306 306 306 303 299 294 289 286 282 278 274 270 267 265 263 262 260 259 257 256 256 254 253 252 252 252 252 252 252 252 251 247 245 244 242 241 241 240 240 240 240 241 242 241 241 242 242 241 241 242 242 242 242 242 242 242 242 243 243 244 244 245 245 246 247 247 248 248 248 248 249 249 249 249 250 251 252 252 252 252 253 253 253 254 255 256 257
303 303 305 307 307 304 298 292 288 284 281 277 274 270 267 264 261 260 258 257 256 256 255 254 252 252 251 251 252 252 253 251 247 246 245 244 242 241 240 239 239 239 240 241 240 240 241 241 241 241 242 242 242 242 242 242 242 242 242 243 244 245 245 246 246 247 247 247 248 248 248 248 248 249 249 249 250 251 251 251 252 252 252 252 253 254 255 256
301 301 302 305 306 306 302 296 290 285 281 279 276 272 269 266 263 260 258 257 256 255 255 254 253 252 251 251 251 251 253 251 247 246 246 244 243 242 240 239 238 238 239 240 240 239 239 240 240 240 240 240 241 241 242 242 242 242 242 243 244 245 246 246 246 246 247 246 246 246 246 247 247 248 248 249 249 250 250 251 251 251 251 252 252 253 254 255
300 300 301 302 304 305 303 299 293 287 282 279 276 273 271 268 265 261 258 257 255 254 254 254 253 252 251 250 250 251 252 250 246 245 246 245 244 242 241 239 238 237 237 238 239 238 238 238 238 238 238 239 240 240 241 241 241 241 242 243 244 245 245 245 245 245 245 245 245 245 245 246 246 247 247 248 248 249 249 250 250 250 250 251 252 252 254 255
299 299 300 301 303 303 302 300 295 290 284 280 276 273 271 268 266 263 260 257 255 254 253 253 253 252 251 250 250 251 250 248 247 245 245 246 244 242 241 240 238 236 237 237 238 237 237 237 237 238 238 239 239 239 239 239 239 240 241 242 244 244 244 244 244 244 244 244 244 244 244 244 245 245 246 246 247 247 248 248 249 249 249 250 251 252 253 254
299 299 299 301 302 302 301 299 295 290 285 281 278 274 271 268 266 264 262 259 256 254 253 252 251 251 251 250 251 250 247 247 248 246 244 245 244 242 241 240 238 236 236 236 237 236 237 237 237 237 237 238 238 238 238 239 239 239 240 241 242 244 243 243 244 244 244 244 244 244 244 244 244 244 245 245 246 246 246 247 247 248 248 249 250 251 252 253
299 298 299 300 301 301 299 297 294 290 286 281 278 275 272 268 265 264 263 261 257 254 252 251 251 251 250 251 252 248 245 247 247 246 243 243 244 243 241 240 238 236 235 236 236 236 236 237 237 237 237 237 237 237 237 238 238 238 239 240 241 243 243 243 243 243 243 244 244 244 244 243 243 243 243 244 244 244 245 245 246 247 248 248 249 250 251 253
298 298 299 300 301 300 298 295 292 289 286 282 278 275 272 269 266 264 262 261 259 256 253 251 250 250 249 250 251 247 244 246 246 245 244 243 244 244 242 241 239 237 235 235 235 235 235 236 237 237 237 237 237 237 236 236 237 237 239 240 241 242 242 242 243 243 243 243 243 243 243 242 242 242 242 242 242 243 244 244 245 246 247 248 249 250 251 252
298 298 299 300 300 298 295 293 290 288 285 281 278 274 271 268 267 264 262 260 258 257 254 251 249 249 247 249 251 247 243 244 245 245 244 243 243 243 242 241 239 238 236 235 235 235 235 235 236 237 237 237 237 236 236 236 236 237 238 239 240 241 241 241 241 242 242 242 242 241 241 241 241 241 241 241 242 242 243 244 245 246 247 248 248 249 250 251
298 299 299 300 298 296 294 291 289 286 283 280 277 274 270 267 265 264 262 260 258 256 254 252 249 247 246 248 249 246 243 244 244 244 243 242 243 242 242 241 239 238 236 235 235 235 235 234 235 236 236 236 237 236 235 235 236 237 238 238 239 239 239 240 240 240 240 241 240 239 239 239 239 239 240 240 241 242 243 245 246 246 247 247 248 249 249 250
300 300 300 299 297 295 293 290 287 285 282 279 276 273 269 266 264 262 260 259 257 255 253 251 249 247 245 246 247 246 244 243 242 243 242 241 242 241 241 241 239 238 236 235 234 234 234 234 234 235 235 236 237 236 236 236 237 237 237 237 238 239 239 238 238 238 238 238 238 237 238 238 238 238 239 239 240 242 243 244 246 246 247 247 248 249 249 250
301 301 299 298 296 294 291 289 286 283 280 277 274 271 268 265 262 260 259 258 256 254 252 250 248 246 244 244 245 245 244 242 241 241 241 241 241 241 241 240 239 238 236 235 233 233 233 233 234 234 235 235 236 237 237 236 235 235 234 235 235 236 236 236 235 235 236 236 236 236 237 238 238 238 238 239 240 241 242 244 245 247 248 248 249 250 250 250
301 300 299 297 295 293 290 287 285 282 279 275 273 270 267 263 261 259 257 256 255 253 251 249 247 244 243 243 243 243 243 242 240 240 240 240 240 240 241 241 239 238 236 235 234 233 232 233 233 233 234 235 237 237 235 233 232 232 232 232 232 233 234 234 233 233 234 235 235 235 236 237 237 237 238 238 239 240 242 244 246 247 248 249 250 250 251 251
301 299 298 296 294 291 289 286 283 280 277 274 271 268 265 262 260 257 255 254 253 251 249 247 245 243 242 242 242 242 243 242 240 239 240 240 240 240 241 241 240 238 236 235 234 232 231 231 232 232 233 233 233 233 232 231 231 232 232 232 232 233 234 234 234 233 234 235 234 234 234 236 236 236 237 238 239 241 242 244 245 246 248 249 250 251 252 253
300 298 297 295 292 290 287 284 282 279 275 272 269 266 263 260 257 255 253 252 251 249 247 245 244 243 242 241 241 241 242 242 241 239 239 239 240 240 241 241 241 240 237 235 234 232 231 231 230 231 231 231 231 231 230 230 231 231 231 232 232 233 234 234 233 233 235 235 235 234 234 235 236 236 237 238 240 241 242 243 244 245 246 248 250 251 253 253
299 297 295 293 291 288 286 283 280 277 274 271 268 265 262 259 255 252 250 249 249 247 246 244 242 242 242 240 240 240 241 242 241 239 238 238 239 239 240 241 241 240 237 234 233 233 231 229 229 229 230 230 230 230 230 230 231 231 231 231 232 233 234 234 233 231 233 234 235 235 235 236 237 238 238 239 240 241 241 242 243 244 245 247 249 250 251 251
298 296 294 291 289 287 284 282 279 276 273 270 267 264 261 257 254 251 248 247 247 245 243 243 241 240 242 240 238 239 240 241 241 239 238 237 238 238 239 240 240 240 238 235 233 232 231 228 227 228 229 229 230 230 230 230 230 231 231 232 232 233 233 234 233 231 230 232 233 234 235 236 238 239 239 240 241 241 241 242 243 244 245 246 246 247 249 250
297 294 292 290 288 285 283 280 277 274 272 269 265 262 259 256 252 250 247 244 245 244 241 241 240 239 240 239 237 238 239 240 240 239 238 237 237 238 238 238 239 239 238 235 232 230 229 227 226 226 226 227 228 229 229 229 229 230 230 231 231 232 233 233 232 230 229 230 231 233 234 236 237 239 239 240 241 241 242 242 243 243 243 244 244 245 247 247
296 294 291 289 287 284 281 278 276 273 270 267 264 261 257 254 250 248 245 242 243 244 239 238 239 238 239 239 237 237 238 239 238 237 236 235 235 236 236 236 237 237 237 235 232 229 227 226 226 225 224 225 226 227 228 228 228 228 229 229 230 230 231 232 232 230 229 230 230 231 234 235 237 238 239 239 240 241 241 241 241 242 243 243 244 245 245 246
295 293 291 288 286 283 280 277 275 272 269 265 262 258 255 252 249 246 244 241 241 242 238 236 237 236 237 237 236 235 236 237 236 234 234 234 234 234 235 234 235 235 235 234 232 229 226 226 226 225 224 224 225 225 226 227 227 227 227 228 229 229 230 231 231 230 229 229 230 231 232 234 235 236 238 239 239 240 240 241 241 241 242 243 244 245 246 246
295 292 290 287 284 282 279 276 273 270 267 264 260 257 254 251 248 245 243 240 239 240 237 234 235 235 235 236 234 233 234 235 235 233 233 233 233 233 234 234 234 235 235 233 232 229 226 225 226 225 224 224 224 224 225 226 226 226 226 227 227 228 229 229 230 229 228 228 229 230 231 232 234 234 236 237 238 239 240 240 239 240 241 243 243 245 246 246
294 292 289 286 283 280 278 276 273 270 267 264 260 256 252 249 247 244 241 239 238 238 236 233 233 235 234 233 232 232 232 234 233 231 231 232 232 232 232 233 234 234 234 233 230 229 227 224 224 224 223 222 222 223 224 225 225 225 225 226 226 227 228 228 228 228 227 226 227 229 230 231 233 234 235 236 237 238 238 238 237 238 240 242 243 244 246 248
294 291 288 286 283 280 278 276 274 271 268 264 258 254 250 247 245 242 240 238 237 236 235 232 232 233 233 231 231 231 231 232 232 230 231 232 231 231 232 232 233 233 233 232 228 226 225 223 222 223 221 220 220 220 221 223 224 224 225 225 226 227 227 227 228 228 227 227 226 228 230 231 232 234 234 235 235 236 236 236 236 238 240 241 243 244 245 246
294 291 288 285 284 281 279 277 274 271 267 263 257 252 249 246 243 240 238 237 236 235 233 231 230 231 232 230 229 229 230 231 230 229 230 231 231 231 231 231 232 233 233 231 227 225 224 222 220 221 220 218 218 219 219 220 221 222 224 225 225 226 227 227 227 227 228 226 226 228 229 229 231 233 233 233 233 234 235 236 236 237 239 240 241 242 243 243
295 292 289 286 285 282 280 277 275 271 265 260 254 249 246 244 241 238 236 236 234 233 231 229 228 229 229 227 227 227 227 228 228 228 229 230 230 231 232 232 233 234 233 231 228 225 225 223 221 221 220 218 218 218 219 220 220 221 224 226 226 227 227 228 228 229 229 226 226 228 228 228 230 232 232 231 231 233 234 235 236 237 238 239 240 241 241 240
297 293 289 287 285 282 279 277 273 268 261 254 250 246 243 240 237 234 233 233 231 229 228 227 226 226 225 224 223 223 224 225 226 227 228 229 229 230 231 232 234 234 233 231 228 226 225 224 222 221 221 219 218 218 219 220 221 222 224 226 227 228 229 230 231 232 230 226 227 229 227 227 228 229 231 230 230 232 233 234 235 236 238 238 239 240 239 238
298 293 289 287 284 282 279 275 270 265 257 249 244 241 238 235 232 230 230 229 228 226 225 224 222 222 221 220 220 220 220 222 223 225 227 227 228 229 229 230 231 229 227 226 224 223 223 224 222 221 221 220 219 219 218 220 222 223 226 228 228 230 231 233 233 234 231 227 228 230 228 226 227 228 230 229 229 231 231 232 234 235 236 236 237 238 237 235
298 293 290 287 285 283 279 275 269 261 252 242 237 235 232 229 227 227 226 226 225 222 222 221 220 219 218 218 218 219 219 220 221 223 225 226 227 228 229 230 229 227 224 222 220 218 219 221 222 221 221 220 218 218 217 217 219 220 223 226 227 228 229 230 230 230 228 227 228 229 227 225 226 228 228 228 228 230 230 231 232 233 234 235 235 235 233 231
300 296 292 289 287 284 279 274 267 258 246 237 232 229 225 222 223 223 222 222 220 217 218 218 217 216 215 215 216 217 218 219 220 222 224 225 226 228 228 228 227 225 223 221 218 216 216 217 217 218 219 219 217 217 217 217 217 218 220 222 223 225 226 226 225 224 223 223 225 227 225 222 224 226 226 226 227 229 230 231 231 233 233 233 233 231 229 228
304 300 295 291 288 284 278 272 264 254 242 233 228 223 218 218 220 219 218 219 216 214 215 215 214 213 212 213 214 216 217 218 220 222 223 225 226 226 226 225 224 221 220 219 217 216 216 216 215 214 215 217 217 216 216 217 217 219 221 223 223 223 224 224 224 224 224 224 224 226 223 220 223 225 224 224 226 229 231 230 230 231 231 231 230 229 228 226
308 303 298 294 289 284 276 268 258 248 237 227 221 216 214 215 215 214 215 216 213 212 212 211 211 211 211 212 213 215 217 217 219 220 222 225 226 226 225 223 221 219 217 216 214 214 214 215 215 214 213 215 215 215 215 216 216 217 219 221 223 223 223 223 223 224 225 226 226 226 222 219 222 225 224 224 225 228 230 230 228 228 229 229 228 227 227 225
311 307 303 298 291 283 274 264 254 242 231 221 215 213 212 212 211 211 212 212 209 209 210 209 208 208 209 211 212 214 216 217 218 220 222 224 225 225 224 221 219 217 215 214 213 213 213 212 213 214 213 214 214 214 215 215 215 216 217 218 220 221 222 224 224 225 225 225 225 225 222 219 222 224 223 222 223 225 229 229 227 225 225 226 226 226 226 225
315 311 307 301 292 281 271 260 248 236 227 218 212 209 209 208 208 209 209 208 207 207 206 206 206 206 208 209 211 213 215 216 218 219 221 223 223 223 222 219 216 214 213 214 213 213 212 212 212 213 213 215 215 214 214 215 215 216 217 218 220 220 219 220 221 221 223 223 222 223 221 218 219 222 222 221 221 224 227 229 227 223 224 225 226 226 226 225
318 313 308 303 294 280 267 254 239 228 221 215 210 206 205 205 205 205 205 205 205 204 203 203 204 205 206 208 209 211 213 215 217 218 220 221 220 219 217 216 214 212 212 212 211 211 212 212 212 213 213 215 216 215 215 216 216 217 218 219 221 222 221 221 220 219 219 219 219 220 218 216 217 219 221 220 220 221 225 228 227 225 225 226 227 228 228 228
319 312 307 303 295 279 262 242 228 219 214 211 208 206 206 204 201 200 200 201 201 200 200 201 203 204 206 207 209 210 212 214 216 217 218 218 216 215 213 212 212 212 212 211 210 210 211 212 213 214 214 214 215 215 214 214 215 215 215 216 219 220 220 221 222 221 221 219 218 217 216 216 217 219 221 220 219 220 222 226 227 226 225 226 228 229 229 229
318 312 307 304 295 274 247 222 212 209 206 203 202 204 204 201 197 196 197 197 197 197 198 201 202 203 205 206 208 210 211 213 214 215 214 212 211 210 209 209 209 209 210 210 210 210 210 211 212 213 213 212 213 214 213 213 213 213 213 213 214 214 214 216 217 218 220 219 218 217 215 216 218 219 221 222 220 219 221 224 226 226 226 226 227 228 229 229
320 317 315 310 294 256 212 193 192 194 195 195 195 197 197 194 192 193 194 194 194 194 197 200 201 202 204 206 208 210 211 213 214 213 211 209 208 207 208 208 208 209 209 210 210 211 211 212 212 212 212 212 213 213 212 212 213 213 212 213 213 212 211 212 212 214 215 214 214 215 214 216 217 218 221 222 221 219 219 222 225 227 228 228 227 227 227 226
331 337 334 324 292 228 191 178 181 184 185 187 187 186 187 188 188 189 190 190 191 192 195 198 200 201 203 205 207 209 211 212 212 211 211 210 208 208 209 209 209 210 211 211 211 212 212 213 212 212 213 213 214 214 214 213 212 213 213 213 214 213 213 213 213 213 213 212 212 212 212 214 216 217 219 222 222 220 219 220 223 226 228 229 228 227 226 225
352 0 352 334 286 209 185 172 173 178 177 178 179 178 181 183 184 186 186 187 188 191 194 196 198 200 202 204 206 207 208 209 208 208 209 209 209 209 210 210 211 212 212 212 212 213 213 213 213 213 214 214 215 216 216 215 214 214 214 213 213 213 214 214 215 214 213 212 212 211 211 214 216 217 219 221 222 221 219 218 221 224 227 228 227 226 224 224
7 12 1 338 291 179 173 162 163 170 169 170 172 174 178 180 181 183 183 183 186 189 192 194 195 198 201 202 203 204 204 205 205 205 205 206 207 209 209 210 211 212 213 213 213 215 215 215 214 214 214 213 213 213 213 213 213 213 213 213 213 214 214 214 215 214 213 213 212 211 211 213 215 216 218 220 222 222 220 217 217 220 223 224 224 222 221 220
12 12 4 343 142 148 152 146 148 157 161 165 169 171 174 176 177 179 180 181 184 186 189 191 192 195 198 199 200 200 200 201 201 202 203 204 205 207 208 209 210 211 212 212 212 213 215 215 214 214 214 212 211 210 209 209 209 210 211 211 212 213 214 214 214 213 214 214 213 211 210 212 214 216 217 218 220 222 221 218 216 218 219 221 221 220 220 219
12 9 1 3 133 135 135 131 138 151 156 161 166 168 170 172 173 176 178 180 182 183 184 187 189 190 192 194 195 196 196 197 199 201 202 204 206 207 208 209 210 210 210 210 210 211 212 212 212 213 213 212 210 209 209 208 208 209 210 210 210 211 212 212 213 213 213 213 213 212 211 211 213 216 216 216 218 220 221 219 217 218 219 220 221 221 220 221
13 7 5 108 126 128 130 130 138 148 152 157 162 164 167 169 171 173 175 177 179 180 181 182 184 185 187 189 191 192 194 195 197 200 202 204 206 207 209 209 209 209 208 208 209 211 212 211 211 211 211 211 209 208 207 208 209 209 210 210 209 210 210 210 211 212 212 212 213 213 212 211 213 216 217 217 216 217 220 220 219 218 218 219 221 222 222 223
13 18 76 120 125 130 132 133 139 146 149 154 159 163 166 168 169 170 172 174 175 176 177 178 179 180 183 185 187 189 192 194 197 200 203 204 206 208 209 210 210 210 209 208 209 210 211 211 210 208 208 207 206 206 206 208 209 210 211 210 209 209 209 209 209 211 211 212 213 213 212 213 215 217 219 219 218 217 218 219 219 218 217 218 219 221 222 224
24 69 121 124 127 131 130 128 132 138 144 150 156 160 163 164 164 166 168 169 170 171 173 175 177 179 180 182 185 188 191 194 197 200 202 204 207 209 210 211 211 211 210 209 210 210 211 210 207 205 203 202 203 204 206 208 210 211 212 211 210 210 210 209 209 210 211 212 213 213 213 214 215 217 219 220 219 218 218 219 219 219 218 218 219 220 222 224
69 123 129 123 121 120 118 119 125 134 142 148 153 156 157 158 160 163 165 166 167 168 170 174 177 180 181 182 185 189 192 196 199 201 203 205 209 211 211 211 211 211 210 209 210 210 209 208 205 201 198 198 201 203 206 208 210 211 212 212 212 211 210 210 210 210 210 211 213 213 213 214 215 216 217 218 218 218 218 219 220 221 221 221 221 222 224 225
Height
10631 10629 10628 10626 10625 10624 10622 10621 10620 10619 10618 10618 10618 10618 10618 10619 10619 10620 10621 10621 10622 10623 10624 10625 10626 10628 10630 10631 10634 10637 10640 10644 10648 10651 10651 10650 10658 10662 10662 10667 10673 10677 10680 10683 10687 10690 10695 10700 10704 10708 10711 10716 10720 10723 10727 10733 10737 10743 10747 10751 10753 10751 10750 10751 10754 10756 10762 10770 10774 10778 10783 10786 10787 10786 10789 10792 10793 10795 10796 10797 10800 10801 10801 10801 10800 10801 10802 10802
10624 10623 10622 10620 10619 10617 10616 10615 10613 10613 10612 10611 10611 10611 10611 10612 10612 10613 10613 10614 10615 10616 10616 10617 10618 10620 10621 10623 10625 10628 10631 10635 10639 10641 10641 10645 10651 10652 10653 10659 10666 10670 10671 10674 10678 10681 10686 10691 10695 10699 10703 10708 10712 10715 10721 10726 10731 10736 10740 10744 10744 10740 10742 10745 10748 10752 10758 10765 10769 10773 10777 10780 10782 10781 10784 10787 10789 10790 10792 10794 10796 10797 10797 10796 10796 10797 10798 10797
10618 10617 10615 10614 10613 10611 10610 10609 10607 10606 10605 10605 10605 10604 10604 10604 10605 10605 10606 10607 10608 10608 10609 10610 10611 10612 10613 10615 10617 10619 10622 10626 10629 10631 10634 10638 10641 10643 10647 10652 10659 10663 10662 10665 10670 10673 10677 10682 10687 10691 10695 10699 10703 10708 10714 10719 10724 10728 10733 10737 10732 10731 10735 10739 10742 10747 10753 10760 10764 10768 10771 10775 10777 10777 10779 10782 10784 10785 10787 10790 10791 10792 10793 10793 10793 10793 10793 10793
10613 10611 10609 10608 10606 10605 10604 10602 10601 10600 10599 10599 10598 10598 10597 10597 10597 10598 10598 10599 10600 10601 10602 10602 10604 10605 10606 10607 10609 10612 10613 10616 10620 10621 10625 10629 10631 10636 10641 10644 10651 10655 10653 10656 10662 10666 10670 10675 10680 10684 10688 10692 10696 10701 10706 10711 10716 10720 10726 10727 10722 10725 10729 10731 10737 10742 10749 10755 10759 10763 10766 10768 10771 10773 10774 10776 10779 10780 10781 10784 10787 10788 10789 10789 10788 10788 10788 10789
10607 10605 10603 10602 10600 10599 10597 10596 10594 10593 10593 10592 10591 10591 10590 10590 10590 10590 10591 10591 10592 10593 10594 10595 10596 10597 10599 10600 10602 10604 10605 10608 10611 10612 10616 10621 10623 10628 10633 10636 10642 10646 10646 10649 10655 10659 10663 10668 10673 10676 10680 10684 10688 10693 10698 10702 10707 10714 10718 10717 10716 10720 10721 10725 10733 10737 10743 10749 10753 10758 10760 10762 10765 10767 10769 10770 10772 10774 10776 10780 10783 10784 10784 10784 10783 10783 10784 10785
10601 10598 10597 10595 10594 10592 10590 10589 10587 10586 10586 10585 10584 10584 10583 10583 10582 10582 10583 10583 10584 10585 10586 10587 10588 10590 10591 10592 10595 10597 10598 10601 10602 10602 10606 10611 10614 10617 10623 10627 10632 10638 10640 10642 10648 10653 10656 10661 10665 10668 10671 10675 10680 10685 10689 10694 10701 10707 10709 10709 10711 10712 10713 10721 10729 10732 10738 10743 10748 10753 10754 10756 10759 10762 10764 10764 10766 10768 10772 10775 10777 10778 10779 10778 10778 10778 10779 10781
10594 10592 10590 10588 10586 10585 10583 10582 10580 10579 10578 10577 10577 10576 10576 10575 10575 10575 10575 10575 10577 10577 10578 10579 10580 10582 10583 10585 10588 10590 10592 10591 10591 10594 10598 10602 10606 10608 10614 10619 10625 10631 10633 10636 10642 10646 10649 10653 10657 10660 10663 10668 10674 10678 10682 10688 10695 10700 10701 10701 10703 10703 10707 10718 10723 10727 10733 10737 10742 10746 10748 10750 10752 10756 10757 10758 10760 10763 10767 10769 10771 10772 10773 10773 10772 10773 10775 10777
10586 10585 10582 10580 10579 10577 10576 10574 10573 10571 10570 10569 10569 10568 10568 10567 10567 10567 10567 10568 10568 10569 10570 10571 10573 10575 10576 10578 10581 10584 10583 10578 10583 10590 10591 10594 10598 10600 10605 10611 10617 10623 10626 10628 10633 10638 10642 10646 10650 10653 10657 10662 10666 10670 10675 10682 10689 10693 10693 10693 10695 10696 10703 10713 10718 10723 10728 10731 10737 10739 10741 10743 10746 10749 10750 10752 10754 10758 10761 10763 10765 10766 10767 10767 10767 10769 10770 10772
10578 10577 10575 10573 10571 10569 10567 10565 10564 10563 10562 10561 10560 10560 10559 10559 10559 10559 10560 10560 10560 10562 10562 10563 10565 10566 10568 10571 10573 10577 10572 10567 10578 10585 10582 10585 10589 10591 10595 10601 10607 10613 10616 10618 10624 10630 10635 10639 10641 10645 10649 10653 10658 10663 10669 10677 10683 10685 10685 10687 10689 10690 10699 10709 10712 10717 10721 10725 10729 10731 10733 10737 10739 10741 10743 10746 10749 10752 10754 10757 10759 10760 10760 10760 10762 10764 10766 10767
10570 10568 10566 10565 10562 10561 10559 10557 10555 10554 10553 10552 10551 10551 10550 10550 10550 10551 10552 10552 10553 10554 10554 10556 10557 10559 10561 10563 10567 10568 10560 10560 10572 10576 10575 10578 10580 10582 10586 10591 10597 10604 10607 10609 10616 10623 10626 10628 10632 10637 10642 10647 10653 10658 10664 10671 10676 10677 10679 10682 10682 10684 10694 10702 10705 10709 10713 10717 10721 10723 10727 10731 10733 10734 10736 10739 10742 10745 10748 10750 10752 10753 10753 10754 10756 10760 10761 10763
10561 10559 10557 10555 10553 10552 10550 10548 10546 10544 10544 10542 10542 10541 10541 10541 10541 10542 10543 10543 10545 10545 10546 10547 10548 10552 10553 10556 10561 10555 10549 10556 10564 10566 10569 10570 10571 10574 10577 10581 10588 10594 10598 10601 10607 10613 10616 10619 10626 10632 10637 10642 10647 10652 10658 10664 10669 10670 10673 10676 10675 10678 10688 10695 10698 10702 10706 10709 10713 10716 10721 10724 10725 10727 10729 10732 10735 10738 10741 10743 10745 10745 10746 10748 10751 10754 10757 10759
10552 10549 10547 10545 10543 10542 10540 10538 10537 10535 10534 10532 10532 10531 10531 10532 10532 10533 10534 10535 10536 10536 10538 10538 10541 10544 10545 10552 10551 10540 10543 10553 10553 10555 10561 10561 10563 10566 10568 10573 10578 10585 10589 10592 10597 10603 10608 10613 10620 10626 10631 10637 10640 10645 10652 10658 10663 10665 10666 10669 10669 10672 10683 10689 10691 10695 10699 10702 10706 10710 10714 10717 10718 10720 10723 10725 10728 10730 10733 10735 10737 10737 10739 10742 10745 10749 10752 10755
10543 10540 10538 10535 10533 10531 10529 10528 10526 10525 10524 10523 10522 10520 10520 10521 10522 10525 10525 10526 10526 10527 10529 10530 10534 10535 10539 10546 10535 10528 10541 10545 10541 10544 10551 10555 10557 10559 10561 10565 10570 10575 10580 10583 10588 10594 10601 10607 10613 10619 10625 10630 10634 10640 10648 10653 10657 10658 10659 10662 10663 10668 10677 10682 10685 10689 10692 10695 10700 10704 10708 10709 10711 10714 10716 10718 10720 10722 10725 10727 10729 10730 10732 10736 10740 10744 10747 10750
10533 10530 10528 10525 10523 10520 10518 10517 10515 10514 10513 10513 10512 10510 10510 10510 10513 10515 10515 10516 10516 10518 10520 10522 10526 10526 10534 10536 10519 10521 10535 10532 10530 10535 10543 10550 10551 10552 10555 10557 10562 10567 10571 10574 10580 10586 10594 10601 10607 10613 10619 10624 10628 10634 10641 10646 10650 10652 10654 10656 10660 10665 10671 10675 10679 10683 10685 10688 10694 10698 10700 10702 10704 10707 10709 10710 10713 10715 10717 10719 10722 10724 10726 10731 10735 10739 10742 10746
10523 10520 10517 10515 10512 10509 10507 10505 10503 10503 10502 10502 10501 10499 10499 10500 10503 10504 10504 10505 10506 10509 10511 10513 10517 10517 10526 10523 10507 10514 10524 10521 10524 10529 10537 10543 10542 10545 10547 10549 10554 10558 10562 10567 10572 10579 10587 10594 10600 10606 10612 10616 10620 10628 10636 10641 10644 10647 10650 10652 10656 10660 10663 10668 10673 10676 10678 10682 10688 10692 10693 10694 10697 10700 10701 10704 10706 10708 10710 10713 10716 10718 10721 10726 10730 10733 10737 10740
10512 10508 10506 10503 10500 10497 10495 10493 10491 10491 10490 10490 10489 10486 10486 10490 10494 10493 10493 10494 10496 10499 10501 10504 10506 10508 10515 10509 10497 10505 10513 10514 10519 10522 10528 10533 10534 10538 10539 10542 10546 10549 10555 10560 10565 10572 10580 10587 10593 10599 10605 10609 10615 10623 10630 10636 10640 10643 10646 10647 10650 10653 10655 10661 10666 10668 10671 10675 10682 10685 10685 10687 10690 10693 10695 10697 10700 10702 10705 10708 10710 10713 10717 10720 10724 10728 10732 10735
10500 10496 10493 10490 10487 10484 10482 10480 10478 10478 10478 10478 10476 10472 10474 10479 10482 10481 10481 10483 10485 10487 10491 10494 10495 10498 10503 10496 10490 10497 10502 10506 10511 10513 10519 10522 10526 10531 10532 10535 10537 10541 10547 10552 10558 10565 10572 10579 10585 10591 10597 10603 10609 10616 10625 10633 10637 10639 10640 10642 10644 10647 10648 10654 10658 10660 10664 10669 10674 10677 10678 10680 10684 10687 10689 10692 10695 10698 10701 10703 10706 10709 10712 10715 10719 10723 10727 10730
10487 10483 10479 10476 10473 10470 10468 10466 10464 10464 10464 10464 10462 10459 10461 10467 10469 10469 10470 10471 10473 10476 10479 10482 10483 10487 10490 10485 10484 10489 10492 10497 10502 10505 10510 10514 10519 10523 10525 10527 10529 10534 10540 10545 10552 10557 10564 10571 10577 10583 10590 10598 10605 10613 10624 10630 10629 10628 10631 10634 10636 10637 10638 10644 10649 10653 10657 10662 10667 10671 10672 10674 10678 10681 10684 10687 10690 10692 10695 10699 10702 10705 10708 10712 10715 10718 10721 10724
10473 10469 10465 10461 10458 10455 10452 10450 10449 10448 10448 10449 10448 10444 10447 10453 10455 10456 10457 10459 10461 10463 10466 10469 10472 10476 10477 10475 10477 10479 10482 10488 10494 10499 10503 10506 10511 10515 10517 10520 10523 10528 10533 10540 10546 10550 10557 10563 10569 10578 10588 10596 10602 10609 10616 10616 10614 10618 10622 10624 10626 10628 10630 10635 10641 10646 10650 10655 10661 10665 10666 10668 10671 10675 10678 10681 10684 10687 10691 10695 10699 10701 10705 10708 10711 10713 10715 10719
10459 10454 10450 10446 10442 10439 10436 10434 10432 10431 10432 10432 10432 10429 10432 10439 10441 10441 10444 10446 10448 10449 10452 10456 10459 10463 10465 10465 10468 10471 10473 10479 10487 10492 10495 10498 10503 10507 10510 10513 10517 10522 10528 10534 10538 10543 10548 10555 10565 10575 10582 10587 10591 10596 10601 10603 10605 10610 10614 10617 10620 10622 10625 10629 10636 10642 10645 10649 10655 10658 10659 10661 10665 10669 10672 10676 10680 10684 10689 10692 10695 10698 10701 10704 10706 10708 10711 10715
10443 10438 10433 10429 10425 10422 10419 10417 10414 10413 10414 10415 10415 10413 10417 10424 10426 10426 10430 10434 10433 10433 10438 10443 10448 10454 10455 10455 10458 10462 10466 10472 10478 10483 10487 10491 10495 10499 10503 10507 10512 10517 10523 10527 10531 10536 10541 10551 10562 10568 10572 10575 10579 10584 10590 10594 10598 10603 10607 10611 10614 10617 10619 10624 10631 10637 10640 10644 10648 10651 10654 10656 10659 10663 10667 10672 10677 10681 10685 10687 10690 10693 10697 10700 10702 10704 10707 10710
10427 10421 10416 10411 10407 10403 10401 10398 10396 10395 10396 10397 10397 10398 10402 10408 10410 10411 10415 10420 10417 10418 10426 10432 10439 10444 10441 10442 10449 10454 10460 10465 10468 10473 10479 10483 10487 10492 10497 10501 10506 10510 10514 10519 10525 10530 10537 10547 10554 10558 10562 10565 10570 10576 10582 10587 10592 10596 10601 10605 10609 10611 10614 10618 10625 10631 10635 10639 10642 10646 10649 10651 10654 10658 10664 10669 10672 10676 10679 10682 10686 10690 10693 10696 10697 10699 10702 10705
10409 10403 10398 10393 10389 10385 10382 10380 10378 10377 10378 10380 10381 10382 10387 10391 10393 10396 10401 10405 10401 10403 10415 10420 10428 10433 10427 10430 10441 10448 10453 10455 10458 10465 10471 10476 10480 10484 10489 10495 10500 10503 10507 10514 10520 10525 10532 10539 10544 10547 10553 10557 10563 10569 10574 10580 10585 10590 10595 10599 10603 10605 10607 10612 10619 10626 10630 10633 10637 10640 10643 10646 10651 10655 10661 10665 10667 10671 10675 10678 10683 10687 10689 10691 10692 10695 10697 10701
10390 10384 10379 10374 10371 10368 10365 10362 10360 10361 10362 10364 10365 10368 10372 10375 10378 10381 10384 10391 10388 10388 10402 10410 10416 10421 10415 10419 10434 10441 10444 10446 10451 10459 10464 10469 10473 10476 10482 10488 10491 10496 10502 10507 10512 10518 10524 10529 10532 10537 10544 10549 10556 10562 10568 10574 10579 10584 10588 10592 10596 10598 10601 10605 10612 10620 10625 10627 10631 10634 10637 10642 10647 10652 10657 10660 10662 10667 10671 10675 10680 10682 10683 10685 10688 10691 10693 10697
10371 10365 10360 10356 10354 10350 10347 10346 10344 10346 10347 10349 10351 10354 10357 10360 10363 10365 10368 10378 10377 10375 10390 10401 10404 10407 10404 10411 10427 10433 10435 10438 10443 10449 10455 10459 10463 10467 10473 10478 10484 10489 10494 10498 10504 10510 10515 10520 10524 10529 10536 10542 10548 10555 10561 10567 10572 10576 10581 10585 10588 10590 10593 10598 10605 10614 10620 10623 10627 10630 10633 10639 10644 10648 10652 10655 10658 10663 10667 10671 10674 10676 10678 10680 10684 10687 10689 10693
10353 10348 10343 10340 10338 10334 10332 10331 10330 10331 10333 10335 10338 10340 10344 10346 10348 10351 10357 10366 10366 10365 10380 10391 10391 10394 10396 10404 10416 10423 10427 10429 10431 10438 10445 10449 10454 10459 10464 10470 10477 10482 10486 10490 10495 10502 10509 10514 10518 10523 10530 10535 10542 10549 10554 10559 10564 10569 10574 10577 10578 10581 10586 10591 10599 10608 10615 10619 10623 10626 10631 10635 10640 10644 10646 10650 10654 10658 10662 10666 10670 10672 10673 10677 10680 10682 10685 10690
10337 10331 10327 10324 10323 10320 10317 10317 10317 10318 10320 10323 10327 10329 10332 10334 10335 10340 10347 10354 10355 10357 10369 10378 10380 10383 10387 10396 10406 10414 10417 10416 10420 10433 10439 10441 10446 10452 10457 10464 10470 10474 10478 10483 10489 10497 10504 10508 10512 10518 10524 10529 10537 10544 10549 10553 10558 10564 10567 10567 10570 10574 10579 10585 10593 10602 10609 10614 10618 10623 10628 10631 10635 10640 10642 10646 10650 10654 10657 10662 10665 10666 10668 10672 10675 10678 10682 10687
10322 10316 10312 10309 10308 10307 10304 10303 10304 10306 10309 10313 10316 10318 10320 10322 10324 10331 10338 10342 10345 10349 10358 10367 10371 10373 10378 10388 10397 10403 10406 10406 10415 10426 10428 10430 10438 10444 10451 10458 10463 10467 10470 10476 10485 10491 10496 10502 10507 10511 10517 10524 10533 10538 10542 10546 10551 10556 10557 10559 10563 10567 10572 10579 10586 10595 10602 10608 10614 10621 10625 10628 10632 10636 10638 10642 10646 10649 10653 10656 10658 10660 10663 10666 10670 10674 10679 10686
10308 10303 10299 10295 10294 10294 10292 10291 10292 10295 10298 10301 10305 10306 10308 10310 10315 10323 10329 10332 10336 10341 10349 10357 10363 10364 10370 10380 10388 10394 10398 10400 10409 10417 10419 10425 10433 10439 10445 10451 10454 10458 10462 10469 10477 10482 10487 10494 10499 10502 10509 10518 10524 10528 10532 10537 10543 10547 10548 10550 10555 10560 10566 10572 10581 10589 10596 10605 10614 10618 10622 10625 10628 10631 10635 10640 10643 10645 10647 10649 10652 10655 10658 10663 10667 10671 10677 10683
10296 10291 10287 10283 10282 10282 10280 10280 10282 10285 10287 10291 10294 10295 10297 10301 10307 10314 10320 10323 10327 10333 10340 10348 10353 10356 10363 10373 10380 10386 10390 10394 10402 10410 10414 10419 10426 10432 10437 10442 10446 10450 10455 10462 10469 10475 10480 10485 10489 10494 10502 10509 10512 10517 10523 10528 10534 10538 10539 10543 10549 10554 10560 10567 10575 10583 10593 10605 10612 10614 10618 10622 10624 10628 10632 10636 10638 10639 10642 10644 10647 10651 10655 10660 10664 10668 10673 10678
10285 10279 10275 10272 10270 10271 10269 10269 10272 10274 10277 10281 10284 10285 10289 10294 10300 10307 10311 10314 10319 10326 10333 10339 10345 10349 10356 10365 10372 10378 10383 10388 10396 10403 10407 10413 10420 10426 10431 10436 10440 10444 10450 10457 10464 10471 10475 10480 10485 10490 10496 10501 10505 10511 10517 10522 10527 10532 10534 10538 10544 10550 10555 10563 10572 10581 10593 10605 10608 10608 10613 10618 10622 10625 10628 10632 10634 10635 10637 10640 10643 10647 10651 10656 10660 10664 10669 10674
10274 10269 10265 10262 10260 10260 10259 10260 10262 10264 10268 10272 10274 10277 10281 10287 10294 10300 10302 10304 10311 10319 10325 10331 10337 10342 10349 10357 10363 10369 10375 10382 10390 10396 10400 10406 10414 10419 10424 10429 10433 10439 10446 10453 10460 10465 10470 10475 10481 10485 10490 10496 10501 10506 10512 10518 10524 10528 10530 10535 10542 10547 10553 10562 10572 10583 10595 10602 10602 10603 10609 10615 10619 10621 10624 10628 10630 10631 10633 10635 10639 10643 10647 10652 10656 10660 10665 10670
10264 10259 10255 10253 10251 10251 10250 10251 10253 10255 10259 10263 10265 10268 10273 10281 10287 10290 10292 10297 10305 10313 10318 10324 10329 10335 10342 10349 10355 10361 10367 10375 10383 10388 10393 10400 10406 10411 10416 10421 10425 10431 10438 10444 10450 10457 10464 10469 10475 10480 10485 10492 10498 10502 10509 10517 10523 10527 10529 10534 10541 10547 10554 10564 10574 10584 10592 10595 10596 10598 10605 10613 10616 10616 10620 10624 10625 10626 10628 10630 10635 10640 10644 10648 10652 10657 10661 10664
10255 10250 10247 10244 10243 10243 10242 10243 10245 10248 10251 10253 10255 10260 10267 10275 10278 10281 10287 10293 10299 10307 10312 10317 10323 10329 10336 10344 10350 10356 10362 10369 10376 10381 10387 10394 10400 10405 10410 10415 10419 10424 10430 10434 10440 10449 10456 10463 10470 10477 10481 10487 10493 10498 10504 10509 10513 10518 10522 10527 10535 10544 10552 10562 10570 10578 10584 10587 10588 10593 10602 10610 10611 10611 10616 10619 10620 10621 10622 10626 10632 10636 10640 10645 10648 10653 10656 10658
10246 10243 10240 10237 10235 10235 10235 10236 10238 10240 10243 10245 10248 10254 10261 10266 10269 10274 10281 10286 10293 10301 10305 10311 10319 10325 10332 10339 10345 10351 10357 10364 10371 10376 10382 10389 10394 10399 10404 10408 10412 10419 10424 10429 10436 10444 10449 10455 10462 10468 10473 10480 10485 10490 10494 10497 10502 10508 10511 10517 10529 10538 10546 10554 10562 10569 10573 10577 10582 10589 10598 10606 10605 10605 10610 10613 10614 10616 10618 10624 10630 10633 10636 10641 10644 10648 10650 10652
10239 10236 10233 10231 10229 10229 10229 10230 10231 10233 10236 10239 10243 10249 10254 10258 10262 10269 10275 10280 10287 10295 10300 10307 10314 10321 10328 10334 10340 10346 10353 10360 10366 10372 10378 10383 10388 10392 10396 10401 10406 10412 10418 10424 10431 10438 10443 10448 10453 10459 10465 10471 10476 10481 10486 10492 10498 10503 10507 10517 10528 10533 10539 10548 10556 10562 10566 10573 10580 10587 10595 10600 10598 10599 10605 10608 10610 10611 10614 10620 10626 10629 10632 10636 10639 10642 10644 10647
10232 10230 10227 10225 10224 10224 10224 10224 10226 10227 10230 10233 10238 10242 10246 10251 10257 10264 10269 10275 10284 10291 10296 10304 10311 10318 10325 10330 10337 10343 10349 10356 10362 10368 10373 10378 10382 10387 10391 10396 10400 10406 10411 10417 10424 10430 10436 10442 10447 10453 10458 10462 10467 10472 10477 10483 10490 10498 10507 10517 10521 10526 10535 10545 10552 10558 10564 10572 10579 10583 10589 10593 10593 10596 10601 10605 10606 10608 10609 10614 10621 10625 10628 10631 10634 10637 10640 10644
10227 10224 10222 10221 10219 10219 10219 10220 10221 10223 10225 10228 10232 10236 10240 10246 10252 10258 10264 10272 10280 10287 10294 10301 10308 10315 10321 10327 10334 10340 10346 10353 10358 10363 10368 10373 10377 10381 10386 10391 10396 10401 10406 10412 10418 10423 10428 10435 10440 10447 10452 10455 10459 10465 10470 10478 10487 10495 10501 10506 10511 10522 10535 10542 10549 10557 10563 10569 10574 10579 10584 10589 10590 10593 10596 10599 10601 10603 10604 10608 10615 10620 10622 10624 10628 10631 10635 10640
10222 10220 10218 10217 10216 10215 10215 10216 10217 10219 10221 10224 10228 10232 10238 10243 10249 10255 10262 10270 10278 10285 10293 10300 10306 10312 10318 10324 10330 10336 10342 10348 10353 10359 10363 10367 10372 10376 10381 10386 10391 10396 10402 10407 10413 10418 10424 10429 10435 10441 10446 10448 10453 10461 10470 10479 10486 10491 10495 10501 10509 10520 10530 10536 10544 10552 10557 10563 10568 10573 10579 10585 10587 10586 10588 10593 10596 10599 10600 10602 10609 10615 10617 10619 10623 10627 10632 10637
10218 10216 10214 10213 10213 10212 10212 10213 10214 10216 10219 10222 10225 10229 10234 10240 10246 10253 10261 10269 10277 10284 10292 10298 10304 10309 10315 10321 10327 10333 10339 10344 10349 10354 10358 10362 10366 10370 10376 10381 10386 10391 10396 10401 10407 10414 10419 10425 10431 10436 10440 10446 10455 10466 10473 10477 10481 10487 10496 10504 10511 10519 10528 10533 10540 10546 10551 10557 10563 10568 10575 10579 10580 10579 10582 10588 10592 10595 10596 10598 10603 10610 10613 10615 10619 10624 10628 10633
10216 10213 10211 10210 10210 10209 10210 10211 10212 10214 10217 10220 10224 10228 10233 10238 10245 10253 10260 10267 10275 10283 10290 10295 10301 10307 10313 10319 10324 10330 10335 10340 10344 10349 10353 10357 10361 10366 10371 10376 10381 10387 10392 10397 10404 10410 10415 10421 10426 10432 10439 10449 10458 10462 10463 10467 10474 10482 10491 10498 10504 10514 10524 10530 10537 10545 10549 10554 10559 10564 10570 10573 10574 10575 10578 10583 10587 10591 10592 10594 10598 10604 10608 10612 10616 10620 10624 10629
10213 10211 10209 10208 10208 10208 10208 10209 10211 10213 10216 10219 10224 10228 10234 10240 10247 10253 10260 10266 10274 10282 10288 10294 10299 10305 10311 10316 10322 10327 10331 10335 10340 10343 10347 10351 10356 10361 10366 10370 10376 10382 10387 10393 10399 10404 10409 10415 10421 10429 10438 10444 10447 10448 10452 10459 10465 10472 10479 10485 10492 10504 10515 10524 10533 10540 10544 10549 10555 10561 10565 10567 10569 10572 10574 10578 10583 10586 10589 10591 10594 10598 10603 10607 10612 10616 10620 10625
10211 10209 10207 10207 10206 10206 10206 10207 10209 10212 10215 10219 10223 10228 10235 10241 10247 10254 10260 10266 10274 10281 10287 10292 10298 10304 10309 10314 10319 10323 10328 10332 10335 10339 10342 10346 10351 10356 10361 10367 10373 10379 10384 10389 10395 10400 10405 10410 10417 10425 10430 10433 10435 10439 10444 10451 10457 10465 10474 10481 10489 10502 10512 10518 10525 10529 10534 10542 10549 10555 10559 10562 10565 10567 10569 10573 10578 10582 10586 10588 10591 10595 10599 10603 10608 10611 10615 10619
10209 10207 10206 10206 10206 10205 10206 10206 10208 10211 10214 10219 10223 10229 10236 10242 10248 10254 10260 10267 10274 10279 10285 10290 10296 10302 10307 10312 10316 10321 10326 10329 10333 10336 10340 10345 10351 10356 10361 10367 10373 10378 10382 10387 10392 10397 10402 10407 10413 10419 10422 10427 10431 10435 10440 10447 10457 10467 10475 10483 10492 10502 10508 10512 10518 10523 10530 10538 10543 10548 10553 10556 10559 10563 10565 10568 10573 10578 10582 10585 10588 10591 10595 10599 10603 10607 10611 10614
10208 10206 10206 10206 10206 10206 10206 10207 10209 10212 10215 10220 10225 10230 10236 10242 10248 10254 10260 10267 10272 10278 10283 10288 10294 10300 10305 10309 10314 10318 10323 10326 10330 10335 10340 10346 10352 10357 10362 10367 10372 10376 10380 10384 10388 10393 10397 10403 10409 10414 10419 10425 10432 10439 10446 10455 10463 10469 10476 10483 10490 10496 10503 10510 10516 10522 10530 10536 10540 10546 10550 10552 10555 10559 10562 10565 10569 10573 10578 10582 10585 10588 10591 10594 10598 10602 10606 10609
10207 10206 10206 10207 10207 10207 10208 10209 10211 10214 10217 10221 10226 10231 10236 10242 10248 10255 10261 10267 10271 10276 10282 10288 10294 10299 10304 10308 10313 10317 10321 10325 10330 10335 10340 10345 10351 10355 10359 10364 10368 10371 10375 10380 10385 10389 10393 10399 10405 10410 10415 10421 10428 10435 10442 10450 10457 10464 10471 10478 10485 10492 10499 10505 10512 10521 10528 10532 10536 10542 10546 10548 10551 10555 10558 10561 10564 10568 10573 10578 10581 10583 10586 10588 10592 10596 10599 10602
10208 10207 10207 10208 10208 10208 10209 10211 10213 10217 10220 10224 10228 10232 10238 10244 10250 10256 10262 10266 10271 10276 10282 10288 10293 10298 10303 10307 10311 10315 10319 10324 10329 10333 10338 10343 10347 10350 10355 10359 10362 10366 10370 10375 10380 10384 10389 10395 10401 10406 10410 10416 10422 10427 10433 10440 10449 10457 10464 10471 10478 10486 10493 10501 10510 10518 10522 10527 10533 10538 10541 10543 10547 10550 10553 10557 10560 10564 10569 10573 10576 10578 10581 10583 10587 10590 10593 10595
10208 10209 10209 10209 10209 10210 10211 10213 10216 10219 10222 10225 10230 10234 10240 10246 10252 10258 10262 10267 10272 10277 10282 10288 10293 10297 10301 10305 10310 10314 10319 10323 10328 10332 10336 10340 10344 10347 10351 10355 10358 10363 10367 10372 10377 10380 10384 10390 10396 10401 10407 10414 10420 10425 10431 10438 10445 10451 10457 10464 10472 10479 10488 10498 10506 10511 10516 10523 10529 10533 10535 10539 10542 10545 10548 10552 10556 10560 10564 10568 10571 10574 10577 10580 10583 10585 10588 10589
10210 10210 10211 10211 10211 10212 10213 10214 10217 10220 10223 10228 10233 10237 10243 10248 10253 10258 10263 10268 10273 10278 10282 10287 10292 10296 10300 10305 10310 10314 10318 10322 10326 10330 10334 10337 10341 10345 10349 10352 10357 10361 10365 10369 10373 10377 10380 10386 10392 10398 10404 10411 10417 10422 10428 10435 10442 10448 10453 10459 10467 10474 10483 10492 10498 10504 10511 10518 10522 10526 10531 10534 10537 10540 10543 10548 10552 10556 10560 10563 10566 10570 10573 10576 10579 10581 10583 10585
10212 10213 10213 10213 10213 10213 10214 10216 10219 10222 10226 10230 10235 10240 10245 10250 10255 10260 10265 10269 10274 10280 10284 10288 10292 10296 10301 10305 10310 10314 10318 10321 10325 10328 10332 10336 10340 10343 10347 10351 10355 10358 10362 10366 10370 10373 10378 10383 10389 10395 10401 10408 10414 10421 10427 10433 10439 10445 10449 10455 10463 10470 10478 10486 10493 10500 10507 10513 10517 10522 10527 10531 10534 10537 10540 10545 10549 10553 10555 10558 10561 10564 10568 10571 10573 10576 10578 10580
10215 10215 10215 10214 10215 10216 10217 10219 10222 10226 10230 10234 10239 10244 10249 10254 10259 10263 10268 10272 10276 10281 10286 10290 10293 10297 10300 10305 10309 10313 10317 10320 10323 10327 10330 10335 10338 10341 10344 10348 10351 10355 10359 10364 10367 10371 10375 10381 10387 10392 10399 10406 10412 10418 10424 10430 10437 10442 10447 10452 10459 10467 10474 10483 10490 10497 10504 10509 10514 10519 10524 10527 10530 10533 10537 10541 10545 10548 10551 10553 10556 10558 10562 10565 10568 10571 10573 10576
10217 10217 10216 10217 10219 10221 10222 10224 10227 10230 10234 10239 10243 10248 10253 10258 10262 10266 10270 10274 10278 10283 10287 10291 10295 10298 10302 10306 10310 10313 10317 10320 10323 10327 10330 10334 10336 10339 10342 10345 10348 10352 10357 10361 10364 10368 10373 10379 10385 10390 10396 10402 10408 10414 10420 10426 10432 10438 10444 10450 10457 10464 10472 10480 10487 10494 10499 10504 10509 10514 10518 10521 10524 10528 10532 10536 10539 10543 10545 10548 10550 10553 10556 10560 10564 10566 10569 10571